Regional Weather Roundup
Issued by NWS

Home | Current Version | Previous Version | Text Only | Print | Product List | Glossary On
Versions: 1 2 3 4 5 6 7 8 9 10 11 12 13 14 15 16 17 18 19 20 21 22 23 24 25 26 27 28 29 30 31 32 33 34 35 36 37 38 39 40 41 42 43 44 45 46 47 48 49 50
000
ASUS43 KMKX 190421
RWRWI

WISCONSIN REGIONAL WEATHER ROUNDUP
NATIONAL WEATHER SERVICE MILWAUKEE/SULLIVAN WI
1100 PM CDT FRI AUG 18 2017

NOTE: "FAIR" INDICATES FEW OR NO CLOUDS BELOW 12,000 FEET WITH NO
SIGNIFICANT WEATHER AND/OR OBSTRUCTIONS TO VISIBILITY.

WIZ001-002-006>008-014>016-023>028-190500-
NORTHWEST WISCONSIN

CITY           SKY/WX    TMP DP  RH WIND       PRES   REMARKS
SUPERIOR ARPT    N/A     61  59  94 SW8       29.86S
ASHLAND        FAIR      64  62  93 SW9       29.86S
HAYWARD        MOCLDY    57  56  96 CALM      29.90S FOG
SIREN          FAIR      61  60  97 W6        29.91R
CUMBERLAND     FOG       55  55 100 CALM      29.92R VSB 1/2
RICE LAKE      FOG       60  59  97 CALM      29.93R VSB 1/4
CHETEK         FOG       61  61 100 SW3       29.91S VSB 1
LADYSMITH      FAIR      63  61  94 SW3       29.92S
EAU CLAIRE     FAIR      64  61  90 SW6       29.91R
MENOMONIE      FAIR      63  61  94 SW3       29.92S
NEW RICHMOND   FAIR      61  61 100 SW5       29.93R
OSCEOLA        FAIR      59  59 100 CALM      29.94S
$$

WIZ003>005-009-010-017-018-190500-
NORTH CENTRAL WISCONSIN

CITY           SKY/WX    TMP DP  RH WIND       PRES   REMARKS
MANITOWISH WTR MOCLDY    55  55 100 CALM      29.90R FOG
ARBOR VITAE    FAIR      57  55  95 CALM      29.90S FOG
WOODRUFF       FAIR      57  55  95 CALM      29.90S FOG
RHINELANDER    FAIR      58  57  97 W6        29.91R
EAGLE RIVER    MOCLDY    53  53 100 CALM      29.89S FOG
LAND O LAKES   FAIR      53  53 100 CALM      29.90S
PHILLIPS       FAIR      60  60 100 CALM      29.90S
TOMAHAWK       FOG       54  53  96 CALM      29.91S VSB 1/2
MEDFORD        CLOUDY    61  61  99 W5        29.91S FOG
MERRILL        FAIR      59  59 100 W6        29.91R
$$

WIZ029-030-035-036-043>047-190500-
CENTRAL WISCONSIN

CITY           SKY/WX    TMP DP  RH WIND       PRES   REMARKS
WAUSAU         FAIR      62  60  93 NW8       29.89R
MOSINEE        FAIR      63  61  94 W6        29.92R
MARSHFIELD     FAIR      63  61  93 NW8       29.91S
STEVENS POINT  FAIR      63  63 100 CALM      29.91R
WAUPACA        FAIR      67  63  88 W3        29.90R
WAUTOMA        CLOUDY    65  63  93 W5        29.91R
WISC RAPIDS    CLOUDY    65  64  97 NW6       29.92R
CAMP DOUGLAS   FAIR      59  59 100 W5        29.92R FOG
$$

WIZ011>013-019>022-031-037>040-048>050-190500-
NORTHEAST WISCONSIN

CITY           SKY/WX    TMP DP  RH WIND       PRES   REMARKS
ANTIGO         FAIR      58  58  99 W3        29.90S
SHAWANO        FAIR      65  60  84 W3        29.88R
OCONTO         FAIR      58  57  95 CALM      29.86S
STURGEON BAY   CLOUDY    60  56  86 CALM      29.87R
GREEN BAY      FAIR      64  63  96 NW3       29.88R
MANITOWOC      MOCLDY    64  59  83 W3        29.88R
APPLETON       MOCLDY    64  59  82 W6        29.87R
CLINTONVILLE   FAIR      63  59  88 CALM      29.88R
OSHKOSH        CLOUDY    66  60  81 W5        29.88R
$$

WIZ032>034-041-042-053>061-190500-
SOUTHWEST WISCONSIN

CITY           SKY/WX    TMP DP  RH WIND       PRES   REMARKS
LA CROSSE      FAIR      64  62  93 CALM      29.93R
SPARTA         FAIR      57  57 100 CALM      29.94R FOG
VIROQUA        FAIR      60  60 100 NW5       29.95R
BOSCOBEL       FOG       60  58  92 CALM      29.93F VSB 1/4
PRAIRIE DU CHI FAIR      59  57  93 E3        29.92F
PLATTEVILLE    FAIR      60  60 100 W5        29.94S
$$

WIZ056-057-062-063-064-067-068-190500-
SOUTH CENTRAL WISCONSIN

CITY           SKY/WX    TMP DP  RH WIND       PRES   REMARKS
REEDSBURG      FAIR      63  63 100 W3        29.92R
BARABOO/DELLS  CLOUDY    64  60  88 CALM      29.92S
LONE ROCK      FAIR      63  62  97 CALM      29.92R
MINERAL POINT  FAIR      61  61 100 W3        29.94R
MADISON        MOCLDY    65  61  87 VRB3      29.90S
MIDDLETON      FAIR      63  63 100 W5        29.92R
WATERTOWN      CLOUDY    65  62  92 CALM      29.89S
MONROE         FAIR      64  59  82 W7        29.92S
JANESVILLE     FAIR      64  63  94 CALM      29.90S
$$

WIZ051-052-058>065-066-070>072-190500-
SOUTHEAST WISCONSIN

CITY           SKY/WX    TMP DP  RH WIND       PRES   REMARKS
MILWAUKEE      MOCLDY    70  60  70 NW6       29.88R
WAUKESHA       CLOUDY    63  57  82 W3        29.91R
MILWAUKEE/TIMM CLOUDY    64  55  72 W5        29.90R
RACINE         FAIR      67  60  78 W5        29.90R
KENOSHA        FAIR      65  58  78 W6        29.90R
FOND DU LAC    CLOUDY    66  59  78 W6        29.89R
SHEBOYGAN      FAIR      64  62  93 W5        29.88R
WEST BEND      CLOUDY    64  61  88 NW3       29.88F
JUNEAU         CLOUDY    65  61  87 CALM      29.90F
$$

LSZ147-162-190500-
LAKE SUPERIOR

STATION/POSITION TIME  TEMP    WIND        PRES    WAVE
                       AIR SEA DIR/SP/G            HT/PER
                 (UTC) (F)     (DEG/KT/KT) (MB)    (FT/S)
W MID LAKE BUOY  0350   62 60  220/  8/ 10 1009.4F   1/ 4
DEVILS ISLAND    0400   65     240/ 15/ 17 1009.8F
PORT WING        0321   67     190/  6/ 11 1010.8S
SAXON HARBOR     0330   63     200/  5/  9 1010.5S
$$

LMZ867-665-643>646-190500-
LAKE MICHIGAN

STATION/POSITION TIME  TEMP    WIND        PRES    WAVE
                       AIR SEA DIR/SP/G            HT/PER
                 (UTC) (F)     (DEG/KT/KT) (MB)    (FT/S)
S GREEN BAY BUOY 0400   68 70  270/  8/ 10 1011.1
N MID LAKE BUOY  0350   65 67  300/  8/ 10 1010.5R
NORTHPORT PIER   0340   67     290/  6/  8 1010.5R
KEWAUNEE LAKESHO 0354   64     280/  1/  2 1010.7R
SHEBOYGAN LAKESH 0400   68     280/  7/  9 1011.1R
PORT WASHINGTON  0330   70     280/  3/  6 1012.5R
ATWATER BUOY     0309   70 71  270/  8/  8 1011.8
MILWAUKEE LAKESH 0400   69     290/  8/ 12   N/A
S MID LAKE BUOY  0350   72 71  260/  8/  8 1011.2R   1/ 4
KENOSHA   LAKESH 0400   69     290/  7/ 11 1011.9
$$

TC  - TEMPERATURE IN CELSIUS
VSB - VISIBILITY IN STATUTE MILES
WCI - WIND CHILL INDEX
HX  - HEAT INDEX




USA.gov is the U.S. government's official web portal to all federal, state and local government web resources and services.